Content
SEND FEEDBACK

Daily
Averages
Monthly
Summary
United Kingdom

STORNOWAY, SCOTLAND


Home > Europe > United Kingdom > Scotland
Elevation: 43 feet     Latitude: 58 13N     Longitude: 006 19W

WEATHER
 
SELECT A DAY
Number of Records: 239,667;   Date Range: 7/1/96 - 9/21/14
 
SHARE

PRINT THIS DATA

[ ← Previous Day ]
WEATHER ALMANAC - FEBRUARY 10, 2013
[ Next Day → ]
[ °C ]   °F
Weather ElementAverageHighLow
Temperature39.6 °F41 °F (12:50 am)37.4 °F (9:20 am)
Dewpoint34.3 °F37.4 °F (1:20 am)32 °F (12:50 pm)
Humidity80.5 %87 % (1:20 am)69 % (11:50 am)
Barometer29.52 in29.71 in (12:50 am)29.44 in (12:50 pm)
Wind Speed17.7 mph28.8 mph (11:50 pm)
Wind Gust35.7 mph (10:50 pm)
Weather ElementAverage
Visibility8.2 mi
Wind DirectionESE (108.4 °)

Weather ElementTotal
Precipitation---
Heating Degree Days25.8 (Base 65)
Averaged from 55 records on February 10, 2013
WEATHER CONDITIONS BREAKOUT
WIND DIRECTION BREAKOUT
WEATHER BY HOUR - FEBRUARY 10, 2013
[ °C ]   °F
Local TimeTemperatureDewpointHumidityBarometerVisibilityWind DirectionWind SpeedGust SpeedPrecipitationEventsConditions
12:50 AM41.0 °F35.6 °F81 %29.71 in6.2 miESE (120°)11.5 mphOvercast
1:20 AM41.0 °F37.4 °F87 %29.68 in6.2 miSE (130°)10.4 mphOvercast
1:50 AM41.0 °F37.4 °F87 %29.68 in6.2 miSE (130°)12.7 mphOvercast
2:20 AM41.0 °F35.6 °F81 %29.65 in6.2 miSE (130°)12.7 mphOvercast
2:50 AM41.0 °F37.0 °F82 %29.65 in22.0 miESE (110°)13.8 mphScattered Clouds
2:50 AM41.0 °F35.6 °F81 %29.65 in6.2 miESE (120°)12.7 mphOvercast
3:20 AM41.0 °F35.6 °F81 %29.62 in6.2 miESE (120°)11.5 mphMostly Cloudy
3:50 AM41.0 °F35.6 °F81 %29.62 in6.2 miESE (120°)11.5 mphMostly Cloudy
4:20 AM41.0 °F35.6 °F81 %29.59 in6.2 miESE (120°)12.7 mphMostly Cloudy
4:50 AM41.0 °F35.6 °F81 %29.59 in6.2 miESE (120°)11.5 mphMostly Cloudy
5:20 AM41.0 °F35.6 °F81 %29.56 in6.2 miESE (120°)12.7 mphOvercast
5:50 AM41.0 °F36.0 °F78 %29.56 in25.0 miESE (110°)16.1 mph
5:50 AM41.0 °F35.6 °F81 %29.56 in6.2 miESE (120°)13.8 mphOvercast
6:20 AM39.2 °F35.6 °F87 %29.56 in3.7 miESE (120°)11.5 mphLight Drizzle
6:50 AM39.2 °F35.6 °F87 %29.53 in6.2 miSE (130°)12.7 mphMostly Cloudy
7:20 AM39.2 °F35.6 °F87 %29.53 in6.2 miEast (100°)9.2 mphMostly Cloudy
7:50 AM39.2 °F33.8 °F81 %29.53 in6.2 miESE (110°)9.2 mph
8:20 AM39.2 °F33.8 °F81 %29.53 in6.2 miESE (110°)12.7 mph
8:50 AM38.0 °F34.0 °F81 %29.51 in25.0 miEast (100°)20.7 mphMostly Cloudy
8:50 AM39.2 °F33.8 °F81 %29.50 in6.2 miEast (100°)12.7 mph
9:20 AM37.4 °F33.8 °F87 %29.50 in6.2 miESE (110°)17.3 mph
9:50 AM39.2 °F33.8 °F81 %29.50 in6.2 miEast (100°)16.1 mph
10:20 AM39.2 °F33.8 °F81 %29.47 in6.2 miESE (110°)16.1 mph
10:50 AM39.2 °F33.8 °F81 %29.47 in6.2 miESE (110°)16.1 mph
11:20 AM41.0 °F33.8 °F76 %29.47 in6.2 miESE (110°)20.7 mphPartly Cloudy
11:50 AM40.0 °F33.0 °F69 %29.47 in18.0 miESE (110°)24.2 mphPartly Cloudy
11:50 AM39.2 °F33.8 °F81 %29.47 in6.2 miESE (110°)19.6 mphPartly Cloudy
12:20 PM41.0 °F33.8 °F76 %29.47 in6.2 miESE (110°)18.4 mphPartly Cloudy
12:50 PM39.2 °F32.0 °F75 %29.44 in6.2 miESE (110°)20.7 mphPartly Cloudy
1:20 PM39.2 °F33.8 °F81 %29.44 in6.2 miESE (110°)20.7 mph32.2 mphPartly Cloudy
1:50 PM39.2 °F32.0 °F75 %29.44 in6.2 miESE (110°)21.9 mphPartly Cloudy
2:20 PM39.2 °F33.8 °F81 %29.44 in6.2 miEast (100°)19.6 mphScattered Clouds
2:50 PM39.0 °F34.0 °F75 %29.46 in22.0 miEast (100°)24.2 mphScattered Clouds
2:50 PM39.2 °F33.8 °F81 %29.44 in6.2 miEast (100°)19.6 mphScattered Clouds
3:20 PM39.2 °F33.8 °F81 %29.44 in6.2 miEast (100°)18.4 mphScattered Clouds
3:50 PM39.2 °F33.8 °F81 %29.44 in6.2 miEast (100°)20.7 mphScattered Clouds
4:20 PM39.2 °F33.8 °F81 %29.44 in6.2 miEast (100°)17.3 mphScattered Clouds
4:50 PM41.0 °F33.8 °F76 %29.47 in6.2 miEast (90°)18.4 mphScattered Clouds
5:20 PM37.4 °F32.0 °F81 %29.47 in6.2 miEast (100°)17.3 mphScattered Clouds
5:50 PM38.0 °F32.0 °F71 %29.47 in22.0 miEast (90°)25.3 mphScattered Clouds
5:50 PM39.2 °F33.8 °F81 %29.47 in6.2 miEast (90°)18.4 mphScattered Clouds
6:20 PM39.2 °F33.8 °F81 %29.47 in6.2 miEast (90°)19.6 mphMostly Cloudy
6:50 PM39.2 °F33.8 °F81 %29.47 in6.2 miEast (90°)19.6 mphMostly Cloudy
7:20 PM39.2 °F33.8 °F81 %29.47 in6.2 miEast (100°)20.7 mphMostly Cloudy
7:50 PM39.2 °F33.8 °F81 %29.50 in6.2 miEast (100°)19.6 mphMostly Cloudy
8:20 PM39.2 °F33.8 °F81 %29.50 in6.2 miEast (100°)19.6 mphScattered Clouds
8:50 PM39.0 °F33.0 °F73 %29.49 in22.0 miEast (100°)26.5 mphScattered Clouds
8:50 PM39.2 °F33.8 °F81 %29.50 in6.2 miESE (110°)20.7 mphMostly Cloudy
9:20 PM39.2 °F33.8 °F81 %29.50 in6.2 miESE (110°)19.6 mphMostly Cloudy
9:50 PM39.2 °F33.8 °F81 %29.50 in6.2 miESE (110°)21.9 mphScattered Clouds
10:20 PM39.2 °F33.8 °F81 %29.50 in6.2 miESE (110°)24.2 mphOvercast
10:50 PM39.2 °F33.8 °F81 %29.53 in6.2 miESE (110°)23.0 mph35.7 mphScattered Clouds
11:20 PM39.2 °F33.8 °F81 %29.53 in6.2 miESE (110°)23.0 mph34.5 mphRainLight Rain
11:50 PM38.0 °F34.0 °F80 %29.54 in7.0 miEast (100°)28.8 mphRainLight Rain
11:50 PM39.2 °F33.8 °F81 %29.53 in6.2 miESE (110°)24.2 mphRainLight Rain
Hourly data recorded from EGPO, located miles away from Stornoway, Scotland







STORIES FROM OUR PARTNERS